Regional Weather Roundup
Issued by NWS

Home | Current Version | Previous Version | Graphics & Text | Print | Product List | Glossary On
Versions: 1 2 3 4 5 6 7 8 9 10 11 12 13 14 15 16 17 18 19 20 21 22 23 24 25 26 27 28 29 30 31 32 33 34 35 36 37 38 39 40 41 42 43 44 45 46 47 48 49 50
000
ASUS43 KLOT 241006
RWRIL

ILLINOIS REGIONAL WEATHER ROUNDUP
NATIONAL WEATHER SERVICE CHICAGO/ROMEOVILLE IL
500 AM CDT THU JUL 24 2014

NOTE: "FAIR" INDICATES FEW OR NO CLOUDS BELOW 12,000 FEET WITH NO
SIGNIFICANT WEATHER AND/OR OBSTRUCTIONS TO VISIBILITY.

* THESE STATIONS ARE NOT UNDER NWS QUALITY CONTROL. THEY ALSO MAY NOT
  REPORT WEATHER SUCH AS PRECIPITATION OR FOG.

ILZ001-002-007-009-015-016-024-241100-
NORTHWEST ILLINOIS

CITY           SKY/WX    TMP DP  RH WIND       PRES   REMARKS
MOLINE         CLEAR     56  53  90 CALM      30.16S
STERLING*      CLEAR     54  48  82 CALM      30.18S
SAVANNA*       CLOUDY    58  55  87 N3        30.18S
$$

ILZ003-004-008-010-011-017-018-241100-
NORTH CENTRAL ILLINOIS

CITY           SKY/WX    TMP DP  RH WIND       PRES   REMARKS
ROCKFORD       PTCLDY    56  49  77 NE3       30.21R
FREEPORT*      CLEAR     51  49  93 N3        30.21R
ROCHELLE*      CLEAR     53  48  85 CALM      30.18R
DE KALB*       CLEAR     51  49  91 N7        30.18R
PERU*          CLEAR     55  50  82 N8        30.16R
$$

ILZ005-006-012>014-019>023-241100-
NORTHEAST ILLINOIS

CITY           SKY/WX    TMP DP  RH WIND       PRES   REMARKS
CHICAGO-OHARE  CLEAR     57  50  77 N7        30.14R
CHICAGO-MIDWAY CLEAR     61  55  81 N8        30.13R
AURORA         CLEAR     52  48  86 N7        30.16R
LANSING*       CLEAR     62  55  78 NE5       30.13R
JOLIET*        CLEAR     56  52  86 N5        30.15S
WAUKEGAN       CLEAR     53  50  89 NW3       30.15R
DUPAGE AIRPORT CLEAR     53  50  89 N5        30.15R
KANKAKEE*      CLEAR     57  55  93 N5        30.13R
WHEELING       CLEAR     57  52  83 N7        30.16R
MORRIS*        CLEAR     54  52  93 CALM      30.14S
ROMEOVILLE*    CLEAR     55  53  92 N5        30.14S
NORTHERLY ISL    N/A     61  55  81 N7          N/A
$$

LMZ740>746-241100-
SOUTHERN LAKE MICHIGAN

STATION/POSITION SKY/WX   TEMP    WIND        PRES    VSBY  WAVE
                          AIR SEA DIR/SP/G                  HT/PER
                          (F)     (DEG/KT/KT) (MB)    (MI)  (FT/S)
SOUTHERN BUOY              59 60  340/ 10/ 10 1020.9R         2/ 4
WAUKEGAN HARBOR            58     340/  7/ 10 1022.4S
BURNHAM HARBOR             61      10/  8/  8   N/A
CALUMET HARBOR             63     360/  7/ 11 1019.0R
MICHIGAN CITY              62      30/ 15/ 17   N/A
MICHIGAN CITY 6N           64 69   50/ 14/ 17   N/A           5/ 2
ST. JOSEPH                 54 49   20/  8/ 10   N/A           3/ 2
$$

ILZ025>027-034>036-040-047-049-050-058-095>099-241100-
WEST-CENTRAL ILLINOIS

CITY           SKY/WX    TMP DP  RH WIND       PRES   REMARKS
QUINCY         CLEAR     57  54  89 NE6       30.15R
GALESBURG*     CLEAR     54  52  94 CALM      30.16S
MACOMB*        PTCLDY    55  55  98 CALM      30.18R
JACKSONVILLE*  CLEAR     56  54  92 N6        30.14R
PITTSFIELD*    CLEAR     57  54  91 CALM      30.15R
$$

ILZ028>032-037-038-041>044-048-051>054-059>061-241100-
CENTRAL ILLINOIS

CITY           SKY/WX    TMP DP  RH WIND       PRES   REMARKS
PONTIAC        CLEAR     54  52  94 N3        30.14R
PEORIA         CLEAR     60  51  72 N5        30.15R
LACON*         CLEAR     55  50  83 N3        30.15R
LINCOLN*       CLEAR     56  51  85 N5        30.11R
SPRINGFIELD    CLEAR     57  53  86 N7        30.14R
TAYLORVILLE    CLEAR     50  50 100 N7        30.11R
$$

ILZ033-039-045-046-055>057-062-063-241100-
EAST-CENTRAL ILLINOIS

CITY           SKY/WX    TMP DP  RH WIND       PRES   REMARKS
CHAMPAIGN      CLEAR     56  53  90 N12       30.10R
DANVILLE*      CLEAR     53  52  97 N6        30.07R
RANTOUL*       CLEAR     58  53  83 N10       30.12R
MATTOON        CLEAR     51  48  89 NW7       30.08R
PARIS*         CLEAR     54  52  95 CALM      30.09R
$$

ILZ079-100>102-241100-
SOUTHWEST ILLINOIS

CITY           SKY/WX    TMP DP  RH WIND       PRES   REMARKS
ALTON          CLEAR     58  55  89 CALM      30.11R
BELLEVILLE     CLEAR     59  54  83 N2        30.09R
CAHOKIA*       CLEAR     59  53  80 N6        30.10R
SPARTA*        CLEAR     57  52  82 N5        30.09R
$$

ILZ064>066-069>071-074>076-080>082-084>086-088>090-092>094-241100-
SOUTH-CENTRAL ILLINOIS

CITY           SKY/WX    TMP DP  RH WIND       PRES   REMARKS
CARBONDALE     CLEAR     57  52  83 CALM      30.06R
CAIRO*         CLEAR     62  53  72 N3        30.04S
EFFINGHAM*     CLEAR     56  49  76 N6        30.08S
MARION         CLEAR     57  52  82 CALM      30.06S
MT. VERNON     CLEAR     57  48  72 N5        30.08R
CENTRALIA*     CLEAR     54  50  87 N6        30.08S
SALEM*         CLEAR     56  53  89 N6        30.08S
METROPOLIS*    CLEAR     59  51  74 N3        30.03R
$$

ILZ067-068-072-073-078-083-087-091-241100-
SOUTHEAST ILLINOIS

CITY           SKY/WX    TMP DP  RH WIND       PRES   REMARKS
LAWRENCEVILLE  MOCLDY    57  53  86 N6        30.05R
FLORA*         CLEAR     55  51  87 N8        30.07S
FAIRFIELD*     CLEAR     57  54  88 N8        30.05S
HARRISBURG*    CLEAR     56  52  84 N5        30.05S
ROBINSON*      CLEAR     57  55  91 N6        30.07R
CARMI*         CLEAR     57  55  94 N5        30.04R
$$

ABBREVIATIONS USED IN REMARKS
   TC - TEMPERATURE IN CELSIUS
  WCI - WIND CHILL INDEX
   HX - HEAT INDEX
  VSB - VISIBILITY
$$




USA.gov is the U.S. government's official web portal to all federal, state and local government web resources and services.